Station Historical Data
Daily Summary for February 1, 2018 Units:  Metric    English   Both
« Previous Day
Next Day »
Daily Weekly Monthly Yearly Custom
  High: Low: Average:
Temperature: -17.8 °C -7.4 °C 0.9 °C
Dew Point: -17.8 °C -11.7 °C -3.2 °C
Humidity: Humidity% 64% 74%
Wind Speed: 0km/h 3.2km/h 11.6km/h
Wind Gust: 0km/h - -
Wind- - WSW
Pressure: 0 hPa 1007 hPa -
Precipitation: 0 mm    
Historical Graphs
 
 
Tabular Data for February 1, 2018
Time Temperature Dew Point Pressure Wind Wind Speed Wind Gust Humidity Rainfall Rate (Hourly)
-17.8 °C -17.8 °C 0 hPa Calm     Humidity% 0 mm
00:04 4 °C -2.2 °C 1008.4 hPa WSW 12.9 km/h 25.7 km/h 64% 0.25 mm
00:09 4 °C -2.2 °C 1008.4 hPa WSW 14.5 km/h 29 km/h 64% 0.25 mm
00:14 3.9 °C -2.1 °C 1008.4 hPa WSW 14.5 km/h 29 km/h 65% 0.25 mm
00:19 3.9 °C -2.1 °C 1008.4 hPa WSW 11.3 km/h 22.5 km/h 65% 0 mm
00:24 3.8 °C -2 °C 1008.4 hPa SW 19.3 km/h 22.5 km/h 66% 0 mm
00:29 3.7 °C -2.1 °C 1008.4 hPa SSW 9.7 km/h 22.5 km/h 66% 0.25 mm
00:34 3.7 °C -2.1 °C 1008.4 hPa West 9.7 km/h 19.3 km/h 66% 0.25 mm
00:39 3.7 °C -1.9 °C 1008.7 hPa WSW 12.9 km/h 27.4 km/h 67% 0.25 mm
00:49 3.6 °C -1.7 °C 1008.4 hPa South 16.1 km/h 27.4 km/h 68% 0.25 mm
00:54 3.6 °C -1.7 °C 1008.4 hPa SW 9.7 km/h 24.1 km/h 68% 0.25 mm
00:59 3.6 °C -1.7 °C 1008.4 hPa WSW 9.7 km/h 20.9 km/h 68% 0.51 mm
01:04 3.6 °C -1.8 °C 1008.4 hPa SW 11.3 km/h 27.4 km/h 68% 0.51 mm
01:09 3.6 °C -1.6 °C 1008.4 hPa West 6.4 km/h 22.5 km/h 69% 0.51 mm
01:14 3.5 °C -1.7 °C 1008.4 hPa WSW 12.9 km/h 24.1 km/h 69% 0.51 mm
01:19 3.5 °C -1.7 °C 1008.4 hPa WSW 12.9 km/h 24.1 km/h 69% 0.51 mm
01:24 3.4 °C -1.5 °C 1008.4 hPa WSW 11.3 km/h 24.1 km/h 70% 0.51 mm
01:29 3.3 °C -1.6 °C 1008.4 hPa SW 22.5 km/h 25.7 km/h 70% 0.25 mm
01:34 3.3 °C -1.6 °C 1008.4 hPa West 14.5 km/h 27.4 km/h 70% 0.25 mm
01:39 3.2 °C -1.7 °C 1008.4 hPa WSW 11.3 km/h 25.7 km/h 70% 0.25 mm
01:44 3.2 °C -1.6 °C 1008.4 hPa WSW 12.9 km/h 25.7 km/h 71% 0.51 mm
01:49 3.1 °C -1.7 °C 1008.4 hPa SW 14.5 km/h 22.5 km/h 71% 0.51 mm
01:54 3.1 °C -1.7 °C 1008.4 hPa WSW 12.9 km/h 22.5 km/h 71% 0.51 mm
01:59 3 °C -1.6 °C 1008.4 hPa WSW 8 km/h 25.7 km/h 72% 0.25 mm
02:04 2.9 °C -1.6 °C 1008.4 hPa West 12.9 km/h 22.5 km/h 72% 0.25 mm
02:09 2.9 °C -1.6 °C 1008.4 hPa WSW 8 km/h 19.3 km/h 72% 0.25 mm
02:19 2.8 °C -1.6 °C 1008.4 hPa WSW 12.9 km/h 24.1 km/h 73% 0.25 mm
02:24 2.8 °C -1.6 °C 1008.4 hPa WSW 9.7 km/h 20.9 km/h 73% 0.25 mm
02:29 2.7 °C -1.6 °C 1008.4 hPa SW 9.7 km/h 20.9 km/h 73% 0.25 mm
02:39 2.6 °C -1.6 °C 1008 hPa SW 9.7 km/h 20.9 km/h 74% 0.25 mm
02:44 2.6 °C -1.6 °C 1008.4 hPa WSW 6.4 km/h 19.3 km/h 74% 0.25 mm
02:49 2.6 °C -1.4 °C 1008.7 hPa WSW 6.4 km/h 17.7 km/h 75% 0.25 mm
02:54 2.4 °C -1.6 °C 1008.7 hPa WSW 9.7 km/h 17.7 km/h 75% 0.25 mm
02:59 2.4 °C -1.6 °C 1008.7 hPa WSW 9.7 km/h 17.7 km/h 75% 0.25 mm
03:04 2.3 °C -1.7 °C 1008.7 hPa WSW 9.7 km/h 17.7 km/h 75% 0.25 mm
03:09 2.3 °C -1.7 °C 1008.7 hPa WSW 9.7 km/h 17.7 km/h 75% 0.25 mm
03:14 2.2 °C -1.8 °C 1008.4 hPa SW 9.7 km/h 17.7 km/h 75% 0.25 mm
03:24 2.2 °C -1.6 °C 1008.4 hPa WSW 9.7 km/h 20.9 km/h 76% 0.25 mm
03:29 2.2 °C -1.6 °C 1008.4 hPa West 12.9 km/h 17.7 km/h 76% 0.25 mm
03:34 2.2 °C -1.6 °C 1008.4 hPa SW 8 km/h 19.3 km/h 76% 0.25 mm
03:39 2.3 °C -1.7 °C 1008.4 hPa WSW 12.9 km/h 17.7 km/h 75% 0.25 mm
03:44 2.3 °C -1.7 °C 1008.4 hPa WSW 9.7 km/h 17.7 km/h 75% 0 mm
03:49 2.4 °C -1.6 °C 1008.4 hPa WSW 11.3 km/h 24.1 km/h 75% 0 mm
03:54 2.6 °C -1.4 °C 1008 hPa West 9.7 km/h 24.1 km/h 75% 0 mm
03:59 2.7 °C -1.3 °C 1008 hPa SW 12.9 km/h 17.7 km/h 75% 0 mm
04:04 2.6 °C -1.6 °C 1008 hPa WSW 9.7 km/h 22.5 km/h 74% 0 mm
04:09 2.7 °C -1.5 °C 1008 hPa WSW 11.3 km/h 24.1 km/h 74% 0 mm
04:14 2.7 °C -1.4 °C 1008 hPa SW 11.3 km/h 24.1 km/h 74% 0 mm
04:19 2.7 °C -1.3 °C 1008 hPa SW 11.3 km/h 22.5 km/h 75% 0 mm
04:24 2.6 °C -1.4 °C 1008 hPa SW 12.9 km/h 22.5 km/h 75% 0 mm
04:29 2.4 °C -1.3 °C 1008 hPa SW 12.9 km/h 19.3 km/h 76% 0 mm
04:34 2.3 °C -1.4 °C 1008 hPa South 8 km/h 17.7 km/h 76% 0 mm
04:39 2.3 °C -1.3 °C 1008 hPa SW 9.7 km/h 17.7 km/h 77% 0 mm
04:44 2.3 °C -1.3 °C 1008 hPa SW 11.3 km/h 17.7 km/h 77% 0 mm
04:49 2.3 °C -1.3 °C 1008 hPa SW 11.3 km/h 25.7 km/h 77% 0 mm
04:54 2.3 °C -1.3 °C 1008 hPa WSW 16.1 km/h 17.7 km/h 77% 0 mm
04:59 2.3 °C -1.3 °C 1008 hPa SW 9.7 km/h 20.9 km/h 77% 0 mm
05:04 2.3 °C -1.4 °C 1008 hPa SW 11.3 km/h 19.3 km/h 76% 0 mm
05:09 2.4 °C -1.4 °C 1008 hPa SW 11.3 km/h 27.4 km/h 76% 0 mm
05:14 2.4 °C -1.4 °C 1008 hPa SW 12.9 km/h 27.4 km/h 76% 0.25 mm
05:19 2.4 °C -1.4 °C 1008 hPa SW 11.3 km/h 19.3 km/h 76% 0.25 mm
05:24 2.3 °C -1.3 °C 1008.4 hPa SW 11.3 km/h 19.3 km/h 77% 0.25 mm
05:29 2.3 °C -1.3 °C 1008 hPa SW 4.8 km/h 19.3 km/h 77% 0.25 mm
05:34 2.3 °C -1.3 °C 1008 hPa SW 8 km/h 19.3 km/h 77% 0.25 mm
05:39 2.1 °C -1.5 °C 1008 hPa WSW 6.4 km/h 11.3 km/h 77% 0.25 mm
05:44 2 °C -1.6 °C 1008 hPa SSW 4.8 km/h 12.9 km/h 77% 0.25 mm
05:49 1.9 °C -1.7 °C 1008 hPa SW 6.4 km/h 9.7 km/h 77% 0.25 mm
05:54 1.9 °C -1.5 °C 1008.4 hPa SSW 4.8 km/h 12.9 km/h 78% 0.25 mm
05:59 2 °C -1.4 °C 1008 hPa SW 6.4 km/h 11.3 km/h 78% 0.25 mm
06:04 2.1 °C -1.4 °C 1008 hPa SW 6.4 km/h 16.1 km/h 78% 0.25 mm
06:09 2.2 °C -1.3 °C 1008 hPa SSW 8 km/h 12.9 km/h 78% 0.25 mm
06:14 2.3 °C -1.2 °C 1008 hPa SSW 6.4 km/h 19.3 km/h 78% 0 mm
06:19 2.4 °C -1 °C 1008 hPa SW 4.8 km/h 17.7 km/h 78% 0 mm
06:24 2.5 °C -0.9 °C 1007.7 hPa SSW 8 km/h 19.3 km/h 78% 0 mm
06:29 2.6 °C -1.1 °C 1007.7 hPa SSW 8 km/h 14.5 km/h 77% 0 mm
06:39 2.6 °C -1.1 °C 1007.7 hPa SSW 6.4 km/h 14.5 km/h 77% 0 mm
06:44 2.6 °C -1 °C 1007.7 hPa SSW 6.4 km/h 17.7 km/h 77% 0 mm
06:49 2.6 °C -1 °C 1008 hPa SW 6.4 km/h 11.3 km/h 77% 0 mm
06:54 2.7 °C -0.9 °C 1008 hPa SSW 6.4 km/h 14.5 km/h 77% 0 mm
06:59 2.7 °C -0.9 °C 1008 hPa South 11.3 km/h 17.7 km/h 77% 0 mm
07:04 2.8 °C -0.8 °C 1008 hPa SSW 8 km/h 17.7 km/h 77% 0 mm
07:09 2.8 °C -0.8 °C 1007.7 hPa SSW 6.4 km/h 16.1 km/h 77% 0 mm
07:14 2.8 °C -0.8 °C 1008 hPa SSW 8 km/h 16.1 km/h 77% 0 mm
07:19 2.8 °C -0.8 °C 1008 hPa SW 8 km/h 16.1 km/h 77% 0 mm
07:24 2.8 °C -0.8 °C 1008 hPa SW 4.8 km/h 14.5 km/h 77% 0 mm
07:29 2.8 °C -0.8 °C 1008 hPa SW 17.7 km/h 20.9 km/h 77% 0 mm
07:34 2.8 °C -0.8 °C 1007.7 hPa SSE 9.7 km/h 17.7 km/h 77% 0 mm
07:39 2.8 °C -0.8 °C 1007.7 hPa SW 8 km/h 19.3 km/h 77% 0 mm
07:44 2.8 °C -0.8 °C 1007.7 hPa SW 8 km/h 14.5 km/h 77% 0 mm
07:49 2.8 °C -0.8 °C 1007.7 hPa SW 8 km/h 17.7 km/h 77% 0 mm
07:54 2.8 °C -0.8 °C 1007.7 hPa SW 8 km/h 17.7 km/h 77% 0 mm
08:04 2.9 °C -0.7 °C 1007.7 hPa SW 12.9 km/h 19.3 km/h 77% 0.25 mm
08:09 3 °C -0.7 °C 1007.7 hPa SSW 9.7 km/h 19.3 km/h 77% 0.25 mm
08:14 3.1 °C -0.6 °C 1007.7 hPa SE 12.9 km/h 17.7 km/h 77% 0.25 mm
08:19 3.2 °C -0.7 °C 1007.7 hPa SSW 9.7 km/h 19.3 km/h 76% 0.25 mm
08:24 3.2 °C -0.6 °C 1007.7 hPa WSW 8 km/h 14.5 km/h 76% 0.25 mm
08:29 3.3 °C -0.6 °C 1007.7 hPa SW 9.7 km/h 19.3 km/h 76% 0.25 mm
08:34 3.3 °C -0.5 °C 1007.7 hPa SSW 11.3 km/h 20.9 km/h 76% 0.25 mm
08:39 3.3 °C -0.5 °C 1008 hPa SW 14.5 km/h 20.9 km/h 76% 0.25 mm
08:44 3.4 °C -0.6 °C 1007.7 hPa SSW 11.3 km/h 22.5 km/h 75% 0.25 mm
08:49 3.5 °C -0.5 °C 1008 hPa SSW 11.3 km/h 22.5 km/h 75% 0.25 mm
08:54 3.5 °C -0.5 °C 1008 hPa SSW 9.7 km/h 20.9 km/h 75% 0.25 mm
08:59 3.6 °C -0.4 °C 1008 hPa SSW 8 km/h 17.7 km/h 75% 0.25 mm
09:04 3.7 °C -0.3 °C 1007.7 hPa SSW 8 km/h 16.1 km/h 75% 0 mm
09:09 3.8 °C -0.4 °C 1008 hPa SW 20.9 km/h 24.1 km/h 74% 0 mm
09:14 3.8 °C -0.4 °C 1007.7 hPa SSW 9.7 km/h 24.1 km/h 74% 0 mm
09:19 3.9 °C -0.3 °C 1007.7 hPa SSW 9.7 km/h 24.1 km/h 74% 0 mm
09:24 4.1 °C -0.3 °C 1007.7 hPa SW 4.8 km/h 27.4 km/h 73% 0 mm
09:29 4.3 °C -0.1 °C 1007.7 hPa South 9.7 km/h 29 km/h 73% 0 mm
09:34 4.3 °C -0.1 °C 1008 hPa SSW 9.7 km/h 16.1 km/h 73% 0 mm
09:39 4.3 °C -0.3 °C 1008 hPa SW 12.9 km/h 17.7 km/h 72% 0 mm
09:44 4.3 °C -0.3 °C 1008 hPa SW 11.3 km/h 22.5 km/h 72% 0 mm
09:49 4.3 °C -0.3 °C 1008 hPa SW 11.3 km/h 22.5 km/h 72% 0 mm
09:54 4.2 °C -0.2 °C 1007.7 hPa SSW 11.3 km/h 22.5 km/h 73% 0 mm
09:59 4.3 °C -0.3 °C 1007.7 hPa SSW 11.3 km/h 22.5 km/h 72% 0 mm
10:04 4.3 °C -0.3 °C 1008 hPa SE 12.9 km/h 24.1 km/h 72% 0 mm
10:09 4.3 °C -0.3 °C 1008 hPa SW 9.7 km/h 19.3 km/h 72% 0 mm
10:14 4.3 °C -0.1 °C 1008 hPa SSW 4.8 km/h 22.5 km/h 73% 0 mm
10:19 4.4 °C -0.2 °C 1007.7 hPa SW 11.3 km/h 22.5 km/h 72% 0 mm
10:24 4.4 °C -0.2 °C 1007.7 hPa SW 8 km/h 19.3 km/h 72% 0 mm
10:29 4.3 °C -0.1 °C 1008 hPa SW 11.3 km/h 19.3 km/h 73% 0 mm
10:34 4.4 °C -0.1 °C 1008 hPa SW 6.4 km/h 16.1 km/h 73% 0 mm
10:39 4.4 °C -0.1 °C 1007.7 hPa SW 12.9 km/h 25.7 km/h 73% 0 mm
10:44 4.4 °C -0.2 °C 1007.7 hPa WSW 12.9 km/h 20.9 km/h 72% 0 mm
10:49 4.4 °C -0.2 °C 1007.7 hPa SW 11.3 km/h 20.9 km/h 72% 0 mm
10:54 4.5 °C -0.1 °C 1007.7 hPa SW 11.3 km/h 25.7 km/h 72% 0 mm
10:59 4.5 °C -0.1 °C 1007.7 hPa SW 12.9 km/h 25.7 km/h 72% 0 mm
11:04 4.5 °C -0.1 °C 1008 hPa West 20.9 km/h 33.8 km/h 72% 0 mm
11:09 4.4 °C -0.2 °C 1008 hPa WSW 16.1 km/h 33.8 km/h 72% 0 mm
11:14 4.4 °C -0.2 °C 1008 hPa WSW 16.1 km/h 30.6 km/h 72% 0 mm
11:19 4.4 °C -0.2 °C 1008 hPa WSW 12.9 km/h 30.6 km/h 72% 0 mm
11:24 4.5 °C -0.1 °C 1008 hPa WSW 12.9 km/h 30.6 km/h 72% 0 mm
11:29 4.3 °C -0.3 °C 1008.4 hPa WSW 16.1 km/h 30.6 km/h 72% 0 mm
11:34 4.2 °C -0.4 °C 1008 hPa WSW 14.5 km/h 27.4 km/h 72% 0 mm
11:39 4.1 °C -0.3 °C 1008 hPa West 16.1 km/h 22.5 km/h 73% 0 mm
11:44 4.2 °C -0.2 °C 1007.7 hPa WSW 6.4 km/h 25.7 km/h 73% 0 mm
11:49 4.3 °C -0.1 °C 1007.7 hPa WSW 11.3 km/h 25.7 km/h 73% 0 mm
11:54 4.4 °C 0 °C 1007.7 hPa WSW 11.3 km/h 24.1 km/h 73% 0 mm
11:59 4.3 °C -0.1 °C 1007.7 hPa WSW 12.9 km/h 24.1 km/h 73% 0 mm
12:04 4.2 °C -0.1 °C 1007.3 hPa WSW 12.9 km/h 27.4 km/h 74% 0 mm
12:09 4.2 °C 0 °C 1007.7 hPa WSW 14.5 km/h 27.4 km/h 74% 0 mm
12:14 4.2 °C -0.1 °C 1007.7 hPa SW 20.9 km/h 30.6 km/h 74% 0 mm
12:19 4.2 °C 0 °C 1007.3 hPa SW 22.5 km/h 33.8 km/h 74% 0 mm
12:24 4.2 °C -0.2 °C 1007.3 hPa WSW 17.7 km/h 33.8 km/h 73% 0 mm
12:29 4.3 °C 0.1 °C 1007 hPa SW 17.7 km/h 20.9 km/h 74% 0 mm
12:34 4.4 °C -0.1 °C 1007.3 hPa WSW 11.3 km/h 32.2 km/h 73% 0 mm
12:39 4.4 °C 0 °C 1007.3 hPa West 16.1 km/h 33.8 km/h 73% 0 mm
12:44 4.3 °C -0.1 °C 1007.3 hPa SW 20.9 km/h 37 km/h 73% 0 mm
12:49 4.2 °C -0.2 °C 1007 hPa WSW 20.9 km/h 30.6 km/h 73% 0 mm
12:54 4.2 °C -0.2 °C 1007 hPa SW 14.5 km/h 35.4 km/h 73% 0 mm
12:59 4.2 °C -0.2 °C 1007 hPa WSW 17.7 km/h 35.4 km/h 73% 0 mm
13:04 4.1 °C -0.2 °C 1007 hPa WSW 19.3 km/h 38.6 km/h 74% 0 mm
13:09 4.1 °C -0.1 °C 1007 hPa WSW 20.9 km/h 41.8 km/h 74% 0 mm
13:14 4.1 °C -0.2 °C 1007 hPa WSW 20.9 km/h 41.8 km/h 74% 0 mm
13:19 3.9 °C -0.3 °C 1007 hPa West 17.7 km/h 43.5 km/h 74% 0 mm
13:24 3.8 °C -0.2 °C 1007.3 hPa WSW 32.2 km/h 38.6 km/h 75% 0 mm
13:29 3.8 °C -0.2 °C 1007.3 hPa West 29 km/h 35.4 km/h 75% 0 mm
13:34 3.6 °C -0.6 °C 1007.3 hPa WSW 22.5 km/h 41.8 km/h 74% 0 mm
13:39 3.5 °C -0.5 °C 1007 hPa WSW 22.5 km/h 41.8 km/h 75% 0 mm
13:44 3.5 °C -0.5 °C 1007.3 hPa WSW 19.3 km/h 41.8 km/h 75% 0 mm
13:49 3.4 °C -0.6 °C 1007.3 hPa SW 16.1 km/h 38.6 km/h 75% 0 mm
13:54 3.3 °C -0.7 °C 1007.3 hPa WSW 25.7 km/h 35.4 km/h 75% 0 mm
13:59 3.3 °C -0.7 °C 1007.3 hPa WSW 29 km/h 38.6 km/h 75% 0 mm
14:04 3.2 °C -0.7 °C 1007.3 hPa WSW 20.9 km/h 38.6 km/h 76% 0 mm
14:09 3.2 °C -0.7 °C 1007.3 hPa WSW 19.3 km/h 38.6 km/h 76% 0 mm
14:14 3.2 °C -0.4 °C 1007.3 hPa WSW 17.7 km/h 33.8 km/h 77% 0 mm
14:19 3.2 °C -0.4 °C 1007.3 hPa WSW 16.1 km/h 30.6 km/h 77% 0 mm
14:24 3.2 °C -0.4 °C 1007.7 hPa WSW 20.9 km/h 27.4 km/h 77% 0 mm
14:29 3.2 °C -0.5 °C 1007.3 hPa West 11.3 km/h 25.7 km/h 77% 0 mm
14:34 3.2 °C -0.5 °C 1007.7 hPa WSW 9.7 km/h 24.1 km/h 77% 0 mm
14:39 2.9 °C -0.7 °C 1007.7 hPa WSW 14.5 km/h 29 km/h 77% 0 mm
14:44 2.8 °C -0.8 °C 1007.7 hPa WSW 14.5 km/h 30.6 km/h 77% 0 mm
14:49 2.7 °C -0.7 °C 1007.7 hPa WSW 14.5 km/h 30.6 km/h 78% 0 mm
14:54 2.5 °C -0.9 °C 1008 hPa WNW 9.7 km/h 27.4 km/h 78% 0 mm
14:59 2.4 °C -0.8 °C 1008.4 hPa SW 9.7 km/h 29 km/h 79% 0 mm
15:04 2.3 °C -0.9 °C 1008.4 hPa SW 12.9 km/h 30.6 km/h 79% 0 mm
15:09 2.2 °C -1.1 °C 1008.4 hPa SW 16.1 km/h 30.6 km/h 79% 0 mm
15:14 2 °C -1.1 °C 1008.4 hPa SW 16.1 km/h 29 km/h 80% 0 mm
15:19 1.9 °C -1.2 °C 1008.4 hPa WSW 14.5 km/h 29 km/h 80% 0 mm
15:24 1.8 °C -1.1 °C 1008.7 hPa SW 14.5 km/h 27.4 km/h 81% 0 mm
15:29 1.7 °C -1.2 °C 1008.7 hPa SW 19.3 km/h 30.6 km/h 81% 0 mm
15:34 1.7 °C -1.2 °C 1008.7 hPa SW 17.7 km/h 32.2 km/h 81% 0 mm
15:39 1.7 °C -1.2 °C 1008.7 hPa SW 16.1 km/h 29 km/h 81% 0 mm
15:44 1.6 °C -1.3 °C 1008.7 hPa WSW 14.5 km/h 33.8 km/h 81% 0 mm
15:49 1.6 °C -1.3 °C 1009 hPa SW 14.5 km/h 33.8 km/h 81% 0 mm
15:54 1.4 °C -1.3 °C 1009 hPa SW 16.1 km/h 30.6 km/h 82% 0 mm
15:59 1.3 °C -1.4 °C 1009 hPa WSW 16.1 km/h 29 km/h 82% 0 mm
16:04 1.3 °C -1.4 °C 1009 hPa SW 14.5 km/h 29 km/h 82% 0 mm
16:09 1.3 °C -1.4 °C 1009.4 hPa WSW 12.9 km/h 22.5 km/h 82% 0 mm
16:14 1.3 °C -1.4 °C 1009 hPa WSW 12.9 km/h 29 km/h 82% 0 mm
16:19 1.3 °C -1.4 °C 1009 hPa SW 9.7 km/h 30.6 km/h 82% 0 mm
16:29 1.3 °C -1.4 °C 1009 hPa SW 17.7 km/h 27.4 km/h 82% 0 mm
16:34 1.3 °C -1.4 °C 1009.4 hPa WSW 16.1 km/h 33.8 km/h 82% 0 mm
16:39 1.3 °C -1.4 °C 1009.4 hPa WSW 20.9 km/h 32.2 km/h 82% 0 mm
16:44 1.3 °C -1.6 °C 1009.7 hPa WSW 14.5 km/h 32.2 km/h 81% 0 mm
16:49 1.3 °C -1.6 °C 1009.7 hPa WSW 14.5 km/h 30.6 km/h 81% 0 mm
16:54 1.3 °C -1.6 °C 1009.7 hPa WSW 14.5 km/h 30.6 km/h 81% 0 mm
16:59 1.2 °C -1.7 °C 1009.7 hPa WSW 14.5 km/h 29 km/h 81% 0 mm
17:04 1.2 °C -1.7 °C 1009.7 hPa WSW 14.5 km/h 24.1 km/h 81% 0 mm
17:09 1.2 °C -1.7 °C 1010 hPa WSW 11.3 km/h 32.2 km/h 81% 0 mm
17:14 1.2 °C -1.7 °C 1010 hPa WSW 14.5 km/h 32.2 km/h 81% 0 mm
17:19 1.3 °C -1.6 °C 1010 hPa WSW 11.3 km/h 24.1 km/h 81% 0 mm
17:24 1.3 °C -1.8 °C 1010.4 hPa West 11.3 km/h 22.5 km/h 80% 0 mm
17:29 0.8 °C -2.8 °C 1010.7 hPa NW 22.5 km/h 24.1 km/h 77% 0 mm
17:34 0.3 °C -3.4 °C 1011.1 hPa NW 14.5 km/h 24.1 km/h 76% 0 mm
17:39 -0.2 °C -4.1 °C 1011.1 hPa WNW 12.9 km/h 24.1 km/h 75% 0 mm
17:44 -0.4 °C -4.3 °C 1011.4 hPa NW 6.4 km/h 20.9 km/h 75% 0 mm
17:49 -0.6 °C -4.3 °C 1011.1 hPa NW 9.7 km/h 25.7 km/h 76% 0 mm
17:54 -0.8 °C -4.7 °C 1011.4 hPa NNW 11.3 km/h 25.7 km/h 75% 0 mm
17:59 -1.2 °C -4.8 °C 1011.7 hPa NNW 11.3 km/h 22.5 km/h 76% 0 mm
18:04 -1.3 °C -4.9 °C 1011.7 hPa NNW 6.4 km/h 17.7 km/h 76% 0 mm
18:09 -1.4 °C -5.1 °C 1012.1 hPa NNW 6.4 km/h 12.9 km/h 76% 0 mm
18:14 -1.4 °C -4.9 °C 1012.1 hPa North 11.3 km/h 14.5 km/h 77% 0 mm
18:19 -1.6 °C -5.3 °C 1012.1 hPa North 8 km/h 17.7 km/h 76% 0 mm
18:24 -1.8 °C -5.4 °C 1011.7 hPa NNW 8 km/h 19.3 km/h 76% 0 mm
18:29 -1.8 °C -5.5 °C 1012.1 hPa NNW 8 km/h 19.3 km/h 76% 0 mm
18:34 -1.9 °C -5.6 °C 1012.4 hPa NNW 12.9 km/h 17.7 km/h 76% 0 mm
18:39 -2.1 °C -5.9 °C 1012.8 hPa NNW 4.8 km/h 19.3 km/h 75% 0 mm
18:44 -2.2 °C -6.2 °C 1012.8 hPa North 11.3 km/h 14.5 km/h 74% 0 mm
18:49 -2.3 °C -6.7 °C 1013.1 hPa NNW 8 km/h 25.7 km/h 72% 0 mm
18:54 -2.5 °C -6.8 °C 1013.1 hPa NNW 9.7 km/h 25.7 km/h 72% 0 mm
18:59 -2.6 °C -6.9 °C 1012.8 hPa NW 8 km/h 19.3 km/h 72% 0 mm
19:04 -2.7 °C -7.1 °C 1012.8 hPa NW 8 km/h 22.5 km/h 72% 0 mm
19:09 -2.8 °C -7.2 °C 1012.8 hPa NW 6.4 km/h 20.9 km/h 72% 0 mm
19:14 -2.9 °C -7.3 °C 1012.8 hPa WNW 14.5 km/h 17.7 km/h 72% 0 mm
19:19 -3 °C -7.5 °C 1013.4 hPa WSW 4.8 km/h 14.5 km/h 71% 0 mm
19:24 -3 °C -7.7 °C 1013.4 hPa NW 6.4 km/h 19.3 km/h 70% 0 mm
19:29 -2.9 °C -7.7 °C 1013.8 hPa WNW 8 km/h 19.3 km/h 70% 0 mm
19:34 -2.9 °C -7.7 °C 1013.8 hPa NNW 9.7 km/h 17.7 km/h 70% 0 mm
19:39 -2.9 °C -7.8 °C 1014.1 hPa NNW 6.4 km/h 19.3 km/h 69% 0 mm
19:44 -2.9 °C -7.8 °C 1014.4 hPa West 8 km/h 12.9 km/h 69% 0 mm
19:49 -2.9 °C -7.8 °C 1014.4 hPa NNW 11.3 km/h 19.3 km/h 69% 0 mm
19:54 -2.9 °C -7.8 °C 1014.4 hPa WNW 6.4 km/h 14.5 km/h 69% 0 mm
19:59 -3 °C -7.9 °C 1014.4 hPa NW 6.4 km/h 17.7 km/h 69% 0 mm
20:04 -3.1 °C -8 °C 1014.4 hPa NW 8 km/h 20.9 km/h 69% 0 mm
20:09 -3.2 °C -8.1 °C 1014.4 hPa NNW 8 km/h 20.9 km/h 69% 0 mm
20:14 -3.3 °C -8.2 °C 1014.8 hPa NNW 4.8 km/h 17.7 km/h 69% 0 mm
20:19 -3.4 °C -8.3 °C 1015.1 hPa NW 9.7 km/h 17.7 km/h 69% 0 mm
20:24 -3.6 °C -8.4 °C 1015.1 hPa NW 8 km/h 19.3 km/h 69% 0 mm
20:29 -3.7 °C -8.6 °C 1015.1 hPa NW 6.4 km/h 20.9 km/h 69% 0 mm
20:34 -3.7 °C -8.6 °C 1015.5 hPa NW 12.9 km/h 22.5 km/h 69% 0 mm
20:39 -3.9 °C -8.6 °C 1015.5 hPa NW 6.4 km/h 17.7 km/h 70% 0 mm
20:44 -4.1 °C -8.7 °C 1015.8 hPa NW 8 km/h 22.5 km/h 70% 0 mm
20:49 -4.2 °C -8.7 °C 1015.8 hPa WNW 11.3 km/h 17.7 km/h 71% 0 mm
20:54 -4.3 °C -8.8 °C 1015.8 hPa NW 9.7 km/h 24.1 km/h 71% 0 mm
20:59 -4.4 °C -8.9 °C 1015.8 hPa NW 12.9 km/h 19.3 km/h 71% 0 mm
21:04 -4.6 °C -9.4 °C 1015.8 hPa NW 11.3 km/h 25.7 km/h 69% 0 mm
21:09 -4.8 °C -9.8 °C 1015.8 hPa NW 11.3 km/h 25.7 km/h 68% 0 mm
21:14 -4.9 °C -10.1 °C 1015.8 hPa NW 11.3 km/h 24.1 km/h 67% 0 mm
21:19 -5.1 °C -10.2 °C 1015.8 hPa NW 11.3 km/h 22.5 km/h 67% 0 mm
21:24 -5.2 °C -10.2 °C 1016.1 hPa WNW 9.7 km/h 22.5 km/h 68% 0 mm
21:29 -5.2 °C -10.2 °C 1016.1 hPa NNW 3.2 km/h 19.3 km/h 68% 0 mm
21:34 -5.3 °C -10.3 °C 1016.5 hPa NW 8 km/h 19.3 km/h 68% 0 mm
21:39 -5.4 °C -10.4 °C 1016.5 hPa NNW 8 km/h 20.9 km/h 68% 0 mm
21:44 -5.6 °C -10.6 °C 1016.5 hPa NW 6.4 km/h 16.1 km/h 68% 0 mm
21:49 -5.7 °C -10.4 °C 1016.8 hPa WNW 4.8 km/h 14.5 km/h 69% 0 mm
21:54 -5.8 °C -10.7 °C 1016.5 hPa West 6.4 km/h 24.1 km/h 68% 0 mm
21:59 -5.9 °C -11.1 °C 1016.8 hPa NW 6.4 km/h 19.3 km/h 67% 0 mm
22:04 -6 °C -11.3 °C 1016.8 hPa WNW 11.3 km/h 19.3 km/h 66% 0 mm
22:09 -6.1 °C -11.4 °C 1017.2 hPa WNW 9.7 km/h 19.3 km/h 66% 0 mm
22:14 -6.1 °C -11.4 °C 1017.2 hPa WNW 8 km/h 19.3 km/h 66% 0 mm
22:19 -6.2 °C -11.3 °C 1017.5 hPa WNW 6.4 km/h 16.1 km/h 67% 0 mm
22:24 -6.2 °C -11.3 °C 1017.5 hPa WNW 8 km/h 16.1 km/h 67% 0 mm
22:29 -6.3 °C -11.7 °C 1017.5 hPa WNW 4.8 km/h 19.3 km/h 66% 0 mm
22:34 -6.4 °C -11.7 °C 1017.5 hPa WNW 4.8 km/h 16.1 km/h 66% 0 mm
22:39 -6.4 °C -11.5 °C 1017.5 hPa NW 6.4 km/h 16.1 km/h 67% 0 mm
22:44 -6.5 °C -11.4 °C 1017.8 hPa NW 8 km/h 20.9 km/h 68% 0 mm
22:49 -6.6 °C -11.3 °C 1017.8 hPa NW 16.1 km/h 19.3 km/h 69% 0 mm
22:54 -6.7 °C -11.4 °C 1017.8 hPa WNW 19.3 km/h 20.9 km/h 69% 0 mm
22:59 -6.7 °C -11.4 °C 1017.8 hPa NW 12.9 km/h 20.9 km/h 69% 0 mm
23:04 -6.8 °C -11.5 °C 1017.8 hPa WNW 12.9 km/h 17.7 km/h 69% 0 mm
23:09 -6.9 °C -11.6 °C 1017.8 hPa West 8 km/h 16.1 km/h 69% 0 mm
23:14 -6.9 °C -11.7 °C 1017.8 hPa West 9.7 km/h 16.1 km/h 69% 0 mm
23:19 -6.9 °C -11.5 °C 1017.8 hPa West 8 km/h 16.1 km/h 70% 0 mm
23:24 -7 °C -11.4 °C 1017.8 hPa WNW 4.8 km/h 16.1 km/h 71% 0 mm
23:29 -7 °C -11.2 °C 1017.8 hPa West 4.8 km/h 14.5 km/h 72% 0 mm
23:34 -7.1 °C -11.3 °C 1018.2 hPa West 6.4 km/h 17.7 km/h 72% 0 mm
23:39 -7.1 °C -11.3 °C 1018.2 hPa WNW 9.7 km/h 19.3 km/h 72% 0 mm
23:44 -7.2 °C -11.2 °C 1017.8 hPa WNW 9.7 km/h 19.3 km/h 73% 0 mm
23:49 -7.3 °C -11.3 °C 1017.8 hPa West 9.7 km/h 22.5 km/h 73% 0 mm
23:54 -7.4 °C -11.4 °C 1017.8 hPa WNW 11.3 km/h 22.5 km/h 73% 0 mm
23:59 -7.4 °C -11.3 °C 1017.8 hPa WNW 11.3 km/h 20.9 km/h 74% 0 mm
Buffalo, New York, USA
Compliments of Weather Underground - 2.5 mb